Location: Humble ISD Astronomical Observatory
(29.9680°N, 95.2620°W)
Time: 22:36:15
(UTC-05:00)

N. Korean satellite - Visible Passes

Search period start: 17 October 2019 00:00
Search period end: 27 October 2019 00:00
Orbit: 455 x 508 km, 97.2° (Epoch: 16 October)

Date Brightness Start Highest point End Pass type
(mag) Time Alt. Az. Time Alt. Az. Time Alt. Az.
17 Oct 10.1 19:30:51 10° SW 19:32:41 14° W 19:34:31 10° WNW visible
18 Oct 7.2 07:00:56 10° NNE 07:04:31 64° E 07:08:09 10° S visible
19 Oct 9.2 06:36:07 10° NE 06:39:13 26° E 06:42:20 10° SSE visible
20 Oct 10.3 06:12:23 10° ENE 06:13:49 12° E 06:15:17 10° ESE visible
21 Oct 9.9 19:22:27 10° SW 19:24:49 18° W 19:27:12 10° NW visible
22 Oct 7.8 06:53:10 10° NNE 06:56:44 48° E 07:00:18 10° S visible
23 Oct 9.6 06:28:32 10° NE 06:31:23 21° E 06:34:14 10° SSE visible
25 Oct 9.4 19:14:09 10° SSW 19:16:55 23° W 19:19:41 10° NW visible
26 Oct 8.4 06:45:26 10° NNE 06:48:53 37° E 06:52:20 10° SSE visible
